SCP
0 0 0 0 0 0 0 0 0 0 0 0 0 0 0 0 0 0 0 0 0 0 1 1 1 1 1 1 0 0 0 0 0 0 0 0 0 0 0 0 0 0 0 0
0 0 0 0 0 0 0 0 0 0 0 0 0 0 0 0 0 0 0 0 0 0 1 1 1 1 1 1 1 0 0 0 0 0 0 0 0 0 0 0 0 0 0 0
0 0 0 0 0 0 0 0 0 0 0 0 0 0 0 0 0 0 0 0 0 0 1 1 1 1 1 1 1 1 1 0 0 0 0 0 0 0 0 0 0 0 0 0
0 0 0 0 0 0 0 0 0 0 0 0 0 0 0 0 0 0 0 0 0 0 1 1 1 1 1 1 1 1 1 1 1 0 0 0 0 0 0 0 0 0 0 0
0 0 0 0 0 0 0 0 0 0 0 0 0 0 0 0 0 0 0 0 0 0 0 1 1 1 1 1 1 1 1 1 1 1 0 0 0 0 0 0 0 0 0 0
0 0 0 0 0 0 0 0 0 0 0 0 0 0 0 0 0 0 0 0 0 0 0 0 1 1 1 1 1 1 1 1 1 1 1 0 0 0 0 0 0 0 0 0
0 0 0 0 0 0 0 0 0 0 0 0 0 0 0 0 0 0 0 0 0 0 0 0 1 1 1 1 1 1 1 1 1 1 1 0 0 0 0 0 0 0 0 0
0 0 0 0 0 0 0 0 0 0 0 0 0 0 0 0 0 0 0 0 0 1 1 1 1 1 1 1 1 1 1 1 1 1 1 0 0 0 0 0 0 0 0 0
0 0 0 0 0 0 0 0 0 0 0 0 0 0 0 0 0 0 0 0 1 1 1 1 1 1 1 1 1 1 1 1 1 1 1 1 0 0 0 0 0 0 0 0
0 0 0 0 0 0 0 0 0 0 0 0 0 0 0 0 0 0 0 1 1 1 1 1 1 1 1 1 1 1 1 1 1 1 1 1 1 0 0 0 0 0 0 0
0 0 0 0 0 0 0 0 0 0 0 0 0 0 0 0 0 0 1 1 1 1 1 1 1 1 1 1 1 1 1 1 1 1 1 1 1 0 0 0 0 0 0 0
0 0 0 0 0 0 0 0 0 0 0 0 0 0 0 0 0 1 1 1 1 1 1 1 1 1 1 1 1 1 1 1 1 1 1 1 1 1 0 0 0 0 0 0
0 0 0 0 0 0 0 0 0 0 0 0 0 0 0 0 0 1 1 1 1 1 1 1 1 1 1 1 1 1 1 1 1 1 1 1 1 1 0 0 0 0 0 0
0 0 0 0 0 0 0 0 0 0 0 0 0 0 0 0 0 1 1 1 1 1 1 1 1 1 1 1 1 1 1 1 1 1 1 1 1 1 0 0 0 0 0 0
0 0 0 0 0 0 0 0 0 0 0 0 0 0 0 0 1 1 1 1 1 1 1 1 1 1 1 1 1 1 1 1 1 1 1 1 1 0 0 0 0 0 0 0
0 0 0 0 0 0 0 0 0 0 0 0 0 0 1 1 1 1 1 1 1 1 1 1 1 1 1 1 1 1 1 1 1 1 1 1 1 0 0 0 0 0 0 0
0 0 0 0 0 0 0 0 0 0 0 0 0 1 1 1 1 1 1 1 1 1 1 1 1 1 1 1 1 1 1 1 1 1 1 1 1 0 0 0 0 0 0 0
0 0 0 0 0 0 0 0 0 0 0 0 0 0 0 1 1 1 1 1 1 1 1 1 1 1 1 1 1 1 1 1 1 1 1 1 1 1 1 1 1 0 0 0
0 0 0 0 0 0 0 0 0 0 0 0 0 0 0 1 1 1 1 0 0 1 1 1 0 0 0 0 1 1 1 1 1 1 1 1 1 1 1 1 1 0 0 0
0 0 0 0 0 0 0 0 0 0 0 0 0 0 0 1 1 1 0 0 0 1 1 1 1 1 0 0 1 1 1 1 1 1 1 1 1 1 1 1 1 0 0 0
0 0 0 0 0 0 0 0 0 0 0 0 0 0 0 1 1 0 0 0 0 1 1 1 1 1 0 0 1 1 1 1 1 1 1 1 1 1 1 1 1 0 0 0
0 0 0 0 0 0 0 0 0 0 0 0 0 0 0 0 0 0 0 0 0 0 1 1 1 1 1 1 1 1 1 1 1 1 1 1 1 1 1 1 0 0 0 0
0 0 0 0 0 0 0 0 0 0 0 0 0 0 0 0 1 1 1 0 0 0 1 1 1 1 1 1 1 1 1 1 1 1 1 1 1 0 0 0 0 0 0 0
0 0 0 0 0 0 0 0 0 0 0 0 0 0 0 1 1 1 1 0 0 0 0 1 1 1 1 1 1 1 1 1 1 1 0 0 0 0 0 0 0 0 0 0
0 0 0 0 0 0 0 0 0 0 0 0 0 0 1 1 1 1 1 0 0 0 0 0 1 1 1 1 1 1 1 0 0 0 0 0 0 0 0 0 0 0 0 0
0 0 0 0 0 0 0 0 0 0 0 0 0 1 1 1 1 1 1 1 1 0 0 0 0 0 0 0 0 0 0 0 0 0 0 0 0 0 0 0 0 0 0 0
Wind_Speed
1 2 4 8 7 6 4 4 4 6 4 2 4 6 10 10 10 10 10 10 11 10 10 11 11 11 9 8 7 6 6 4 4 2 2 1 1 1 1 1 2 2 2 2
3 6 12 9 5 4 3 3 4 6 4 1 2 3 6 9 12 12 13 12 11 9 9 11 10 10 9 9 8 7 6 5 4 3 2 2 2 1 1 1 1 1 1 2
7 10 7 6 4 3 4 5 4 3 3 4 3 2 3 5 6 6 8 9 10 11 12 11 11 10 9 9 9 8 7 6 5 4 2 1 1 1 1 0 1 1 1 2
7 8 6 5 4 4 5 5 3 1 2 1 2 1 4 5 5 7 8 9 11 11 11 11 11 10 11 10 9 8 8 6 5 5 4 4 3 2 2 2 1 1 1 2
6 4 3 5 6 4 6 3 1 0 1 2 2 2 5 3 5 8 9 11 12 12 13 12 12 12 11 10 9 8 7 6 5 5 5 4 3 2 1 1 1 1 1 1
8 6 4 5 4 3 2 4 6 6 5 2 4 2 5 6 10 9 10 11 11 11 11 11 10 9 8 8 8 7 7 6 5 6 5 5 4 3 2 1 1 1 1 1
7 8 5 3 2 4 3 6 5 6 5 5 4 1 8 9 9 11 12 12 11 10 10 10 11 10 9 9 9 8 8 7 6 6 5 4 4 3 3 2 2 1 1 1
3 7 6 3 5 5 2 8 7 4 4 6 3 2 7 5 6 7 9 10 11 11 10 10 10 10 10 10 9 8 8 7 6 6 5 4 3 2 2 2 2 2 2 2
5 6 6 4 4 5 2 3 8 7 2 1 3 4 6 3 2 4 7 9 10 11 11 10 9 9 9 9 9 9 8 7 6 6 6 4 4 3 3 2 2 2 2 2
7 4 6 5 2 2 5 5 5 5 3 3 4 3 5 4 3 4 5 8 8 9 9 9 8 9 8 8 7 7 8 7 6 6 6 5 4 4 3 2 2 2 2 1
5 4 6 4 2 4 1 1 4 4 6 6 3 6 6 7 6 6 5 6 8 9 9 9 9 8 7 7 7 7 7 6 6 6 5 4 4 3 3 3 3 2 1 1
3 5 3 6 6 4 4 4 6 4 4 4 4 7 4 3 5 6 5 6 8 9 8 8 8 7 7 7 7 7 6 6 6 5 5 4 4 3 3 3 3 2 2 2
3 6 2 7 9 6 2 1 2 4 4 4 4 6 2 2 4 5 6 5 5 7 7 7 6 6 7 6 6 6 6 6 5 5 5 4 3 3 3 3 3 2 2 2
5 5 6 7 7 4 4 4 1 4 3 3 5 4 2 0 3 4 5 5 6 6 6 6 6 5 6 6 5 6 6 6 6 5 4 4 3 3 3 3 3 3 2 2
6 3 2 3 4 1 2 4 2 0 4 6 5 5 4 4 4 5 6 6 6 6 4 4 5 4 5 5 5 5 5 5 5 5 5 4 4 3 2 2 3 3 3 3
4 3 2 3 3 3 4 5 3 3 1 3 5 1 2 3 4 5 5 6 5 4 3 3 4 4 4 5 5 4 4 4 5 5 5 4 3 3 3 2 2 2 2 2
2 3 2 2 4 4 4 4 2 2 3 4 4 3 3 5 4 3 4 5 4 3 2 2 3 4 4 4 4 5 5 4 5 5 4 4 4 4 4 3 2 3 3 2
4 3 3 1 3 1 6 2 3 5 4 3 4 3 5 6 3 3 3 4 3 2 1 2 2 2 2 2 2 3 4 4 4 3 4 4 4 4 3 3 3 3 2 3
6 6 3 3 2 3 4 4 2 2 1 2 4 4 3 4 5 4 2 3 3 2 2 2 4 4 3 3 3 2 3 3 4 3 3 3 4 3 3 3 3 3 3 3
3 5 5 3 3 4 4 6 4 5 1 3 2 3 3 3 2 3 2 1 2 1 0 1 2 2 3 3 3 3 3 3 3 4 4 3 3 3 4 4 3 3 3 3
3 3 3 3 2 4 5 5 3 3 5 3 1 3 4 3 5 4 2 1 1 2 1 2 2 2 3 3 3 3 2 3 3 3 3 2 3 3 3 3 2 2 2 2
2 2 2 3 2 5 5 3 2 4 3 1 1 2 3 3 3 3 2 2 2 1 1 1 2 1 0 2 3 2 2 3 2 2 2 2 2 2 2 2 2 2 2 2
1 4 4 5 6 5 1 2 2 2 2 1 2 2 4 4 3 3 3 2 2 1 1 1 1 1 0 1 3 2 2 2 2 2 1 1 1 1 1 2 2 2 2 2
3 1 3 1 1 1 2 3 3 3 2 1 2 3 4 4 3 2 3 2 2 1 1 1 2 2 1 1 0 1 1 1 2 2 2 2 2 2 1 1 2 2 2 3
2 1 1 1 2 3 4 2 1 2 2 2 1 1 4 4 3 3 2 2 2 1 1 2 1 1 0 1 1 1 1 2 1 2 2 2 2 2 2 2 2 3 3 4
2 3 4 4 4 3 4 4 1 1 0 0 1 1 2 4 4 3 3 2 2 1 1 2 0 0 1 1 1 2 2 2 2 2 2 2 2 2 2 1 2 3 3 4
Wind_Direction
273 84 239 234 202 205 237 250 263 267 257 150 181 177 181 178 172 173 172 172 173 174 168 160 160 160 156 155 154 156 154 160 152 143 149 153 185 210 194 199 184 188 193 186
7 259 241 240 230 220 249 258 273 298 289 133 149 181 181 172 180 180 178 177 176 168 162 163 161 164 166 166 164 163 164 165 169 174 173 170 171 199 196 220 198 200 192 197
222 246 250 249 247 218 246 225 228 238 338 30 79 356 192 185 176 171 174 174 173 174 171 169 166 170 170 172 173 173 176 172 172 165 141 117 80 26 24 341 249 238 209 207
252 255 258 264 258 206 248 242 216 195 51 287 132 222 254 186 177 187 184 175 177 174 170 172 170 173 179 181 177 173 174 173 173 164 157 156 166 189 216 208 218 244 229 221
263 271 267 258 252 215 227 243 262 355 77 16 17 123 275 162 189 205 196 185 181 177 174 177 178 178 179 177 175 175 170 173 173 169 172 170 181 200 208 176 199 255 267 243
257 266 238 230 253 229 196 46 22 35 59 355 260 163 256 209 202 198 194 187 182 175 176 178 175 169 172 171 169 169 167 178 178 177 178 178 181 181 166 179 199 246 266 274
295 293 275 254 296 323 61 77 27 1 3 264 272 181 246 231 203 191 191 185 177 168 167 170 174 174 171 170 174 173 173 183 181 179 183 185 187 178 180 192 197 209 239 264
236 281 272 239 193 206 218 135 154 192 229 276 327 249 267 248 202 182 175 167 163 169 171 169 171 173 172 172 172 174 180 188 184 181 185 180 173 175 188 196 199 208 222 234
195 252 279 262 222 168 195 197 172 147 188 287 283 282 309 327 113 148 150 151 164 170 169 169 167 165 171 173 173 175 178 182 182 180 178 178 181 182 190 195 201 215 226 226
173 233 281 282 327 305 172 167 97 117 162 248 283 267 242 240 187 158 158 162 170 167 165 162 164 166 169 175 173 170 174 176 177 181 184 186 188 191 191 187 205 221 230 230
159 177 287 328 224 238 307 97 121 130 157 163 228 265 234 197 179 167 170 169 166 166 166 164 165 167 164 166 169 171 171 171 176 180 179 177 182 187 185 196 212 216 229 227
162 139 245 267 262 209 183 189 154 164 228 172 172 258 284 177 165 155 155 160 161 166 164 158 155 152 154 164 172 172 171 172 179 175 169 180 185 185 190 205 218 211 213 223
122 108 52 335 338 351 13 287 161 146 135 161 170 250 329 104 115 125 131 133 142 148 147 144 147 154 162 166 176 174 173 178 179 165 165 175 189 193 201 208 208 200 204 211
108 110 154 194 227 263 308 314 322 125 153 198 206 209 300 105 123 122 121 123 122 126 142 147 151 162 158 164 171 171 178 178 168 161 163 176 192 196 202 202 195 201 201 204
85 113 169 219 242 256 305 314 342 69 187 181 205 179 210 193 166 151 130 119 111 117 122 148 151 164 157 160 166 170 171 170 164 161 170 190 194 192 195 198 198 200 199 207
63 109 58 337 340 14 354 339 2 1 18 137 124 148 214 136 101 94 96 102 104 120 147 158 148 148 168 175 170 164 162 167 161 167 183 189 184 189 199 202 200 197 196 192
55 100 85 291 317 19 336 315 25 33 6 136 159 205 128 87 82 104 119 121 121 121 144 148 157 154 158 176 177 178 174 159 157 172 183 185 186 196 205 206 201 205 206 200
143 114 130 147 36 233 245 291 90 90 45 58 104 110 131 132 124 92 102 114 115 101 148 183 164 153 158 154 169 180 160 155 160 174 186 189 192 205 207 199 209 220 213 210
151 141 129 129 177 256 294 334 326 121 5 18 111 105 96 116 77 35 32 104 137 171 183 193 194 183 169 155 153 152 158 157 160 176 182 194 196 203 208 211 221 226 223 227
71 110 126 143 170 216 255 297 296 110 287 300 127 135 131 110 108 246 255 124 163 174 183 146 156 153 156 163 150 140 161 167 181 191 192 195 188 192 201 212 223 232 226 234
30 50 127 162 195 247 265 297 27 121 223 266 159 155 149 163 194 210 208 182 183 160 144 139 140 162 181 169 146 142 171 201 207 194 187 192 196 198 202 203 213 229 242 255
159 148 184 143 168 253 294 39 118 207 220 169 120 148 141 157 160 159 151 133 118 103 83 111 131 155 168 149 144 151 200 212 183 163 170 192 210 221 209 195 229 236 228 249
150 185 181 177 204 229 272 134 182 146 113 161 154 170 150 152 163 162 148 130 120 91 74 93 129 117 356 163 153 169 230 188 152 154 187 207 203 240 217 200 222 249 245 243
313 51 85 43 296 317 30 75 58 73 97 205 155 154 146 157 163 153 145 139 124 101 98 98 98 93 351 331 110 175 214 171 146 180 220 220 199 237 250 236 222 226 232 237
274 56 81 261 283 356 353 356 30 29 38 62 61 132 162 149 145 148 150 151 141 127 101 96 103 130 313 329 288 256 221 173 182 225 227 227 218 219 236 244 241 238 240 230
251 176 170 223 229 200 264 288 285 98 347 81 88 71 116 143 147 140 140 144 134 123 104 99 106 223 258 226 267 268 239 196 193 237 246 237 226 223 218 225 302 308 273 269